User: anonymous   Login
Location: T�bingen+AIT
(48.5342°N, 9.0700°E)
Time: 00:30:01
(UTC+01:00)
Language:

Cosmos 1184 Rocket - Orbit

View from above orbital plane
View from above orbital plane
View from above satellite
View from above satellite

Ground track
Ground track

The orbit data is extracted from the following two-line orbital elements,

1 11822U 80044B   18055.89743752 +.00002367 +00000-0 +46722-4 0  9997
2 11822 081.2292 276.2975 0012461 149.3975 210.8000 15.46609905072274
Epoch (UTC): 24 February 2018 21:32:18
Eccentricity: 0.0012461
inclination: 81.2292°
perigee height: 418 km
apogee height: 435 km
right ascension of ascending node: 276.2975°
argument of perigee: 149.3975°
revolutions per day: 15.46609905
mean anomaly at epoch: 210.8000°
orbit number at epoch: 7227

The dashed part of the orbit path shows where the satellite is in the earth's shadow,  

DLR